Wind_Speed
45 44 43 41 40 39 37 36 34 33 31 30 29 28 27 27 26 26 26 26 26 26 26 26 26 26 26 25 25 25 25 25 24 24 25 25 25 25 24 24 23 23 22 21 20 19 18 16 15 15 14 13 12 10 9 7 6 6 5 5 5 5 5 5 4 3 2 2 2 3 4 6 7 7 7 8 8 9 10 10 11 11 11 11 11 12 13 13
45 45 43 42 40 39 38 37 35 34 32 31 29 28 28 27 27 27 27 26 26 26 26 26 26 26 26 25 25 25 25 25 25 25 25 25 26 26 25 25 24 23 22 21 20 19 18 17 16 16 15 14 12 10 9 7 7 6 5 5 5 5 4 4 4 3 2 2 3 4 5 6 7 8 8 9 9 10 10 11 12 13 13 13 13 14 14 14
46 45 44 43 42 40 39 38 36 35 33 32 30 29 29 28 28 28 27 27 26 26 26 26 26 26 26 25 25 25 25 25 25 26 26 26 26 26 26 25 24 24 23 22 21 20 19 18 18 17 15 13 11 10 9 8 8 6 5 5 5 4 4 4 3 3 3 3 4 5 6 7 8 9 9 10 10 11 11 12 13 14 15 15 16 16 16 15
46 46 45 44 43 42 40 39 38 36 34 33 31 30 30 30 29 29 29 28 27 26 26 26 26 26 26 25 25 25 25 25 26 26 27 27 27 27 26 26 25 24 23 22 21 20 20 19 18 17 15 13 11 10 9 9 8 7 6 5 5 5 5 4 4 4 4 5 6 7 8 8 9 10 10 11 11 12 12 13 13 14 16 16 17 18 18 17
47 46 45 44 44 43 42 40 39 37 35 34 32 31 31 31 31 30 30 29 28 27 27 27 27 26 26 26 25 25 25 26 26 27 27 27 27 27 27 26 25 25 24 23 22 21 21 20 18 16 15 13 12 11 10 9 8 7 6 5 5 5 5 5 5 5 5 6 6 7 8 9 10 10 11 11 12 12 13 13 14 15 16 17 18 18 19 19
49 48 46 46 45 44 43 41 40 38 36 34 33 32 32 32 32 32 31 30 29 29 28 28 27 27 26 26 25 25 26 26 27 27 28 28 28 27 27 26 26 25 25 24 23 22 21 20 18 17 15 14 13 12 11 10 9 7 7 7 6 6 6 6 6 5 6 6 7 8 9 10 10 10 11 11 12 12 13 14 15 15 16 17 18 19 19 19
51 50 48 47 45 44 43 42 40 38 37 35 34 33 33 33 33 33 32 31 30 30 29 28 28 28 27 26 26 26 26 26 27 28 28 28 28 28 27 27 26 26 25 25 24 23 22 20 18 17 16 15 14 13 12 11 9 8 8 8 8 7 7 7 6 6 7 7 8 8 9 10 11 11 11 11 12 12 13 14 15 16 17 18 19 19 19 20
52 51 49 48 46 45 43 42 40 39 37 36 35 34 34 34 34 34 33 32 32 31 30 29 29 28 28 27 26 26 26 26 28 28 28 28 28 28 28 27 27 27 26 26 25 24 22 20 19 18 17 16 15 14 13 12 11 11 10 10 9 9 8 8 8 8 8 8 9 9 9 10 11 12 12 11 12 13 14 15 16 17 18 19 20 20 20 20
52 51 50 49 47 45 44 42 41 39 38 37 36 35 35 35 35 35 34 34 33 32 31 30 30 29 28 28 27 27 27 27 28 29 29 29 29 29 28 28 28 28 27 27 26 24 23 21 20 19 18 17 16 15 15 14 13 13 12 12 11 10 9 9 9 10 10 10 10 10 10 11 12 13 12 11 12 13 14 15 16 17 18 19 20 21 21 21
53 52 51 50 48 47 45 44 42 40 39 38 37 37 36 36 36 36 35 35 34 34 33 32 31 30 29 29 28 28 28 28 29 30 30 30 30 30 29 29 29 29 29 28 27 25 24 23 22 21 19 19 17 17 16 15 15 14 13 13 12 11 11 10 10 11 11 11 11 11 11 12 13 14 13 12 13 14 15 16 16 18 19 19 20 21 21 22
54 53 52 51 50 48 47 45 43 42 40 39 38 38 38 37 37 37 36 36 36 35 34 33 32 31 30 29 29 29 29 29 30 31 31 31 31 31 30 30 30 30 30 29 28 26 25 24 23 22 21 20 19 18 17 16 16 15 14 14 13 12 12 11 11 11 12 12 13 13 12 13 14 16 15 14 14 15 15 16 17 18 19 20 20 21 22 22
55 54 53 52 51 49 47 46 44 43 42 41 40 40 39 38 38 38 38 37 37 37 36 35 34 32 31 31 31 30 30 30 31 32 32 32 32 32 31 31 32 32 31 30 29 27 27 26 25 23 22 21 20 19 18 18 17 16 15 14 14 13 13 13 12 12 13 13 14 14 12 14 16 16 16 16 16 16 16 17 18 19 20 20 20 21 22 22
56 55 54 53 52 50 49 47 46 45 43 43 42 41 41 40 39 39 39 38 38 38 37 36 35 34 33 32 32 31 31 31 31 32 33 33 33 33 33 33 33 33 33 32 31 29 28 27 26 25 24 22 21 20 19 19 18 17 17 15 15 14 14 14 13 13 14 14 15 15 13 14 17 17 17 18 17 18 18 18 19 20 21 21 21 22 22 22
57 57 56 55 53 52 51 49 48 46 45 44 44 43 42 41 41 40 40 40 39 39 38 38 37 35 34 33 33 31 31 32 32 33 34 34 34 34 34 35 35 35 34 33 32 31 30 29 28 26 25 24 23 22 21 20 20 19 18 17 16 16 16 16 15 15 16 16 16 16 14 15 18 18 19 20 19 19 19 20 21 21 22 22 23 23 23 23
58 58 57 56 55 54 53 51 50 48 47 46 45 44 43 43 42 41 41 40 40 40 39 39 38 37 35 35 33 32 32 32 33 34 35 36 36 36 36 36 37 37 36 35 34 33 32 31 29 28 27 26 25 24 23 23 22 21 20 19 19 18 18 17 18 18 19 18 18 18 16 15 19 20 21 21 21 20 20 21 22 23 23 24 25 25 24 24
59 59 58 57 57 56 54 53 51 50 49 48 47 46 45 44 43 43 42 41 41 40 40 41 40 38 37 36 35 34 33 34 34 35 36 37 37 37 37 38 38 38 38 37 36 35 34 32 31 30 29 28 27 26 26 25 24 24 22 21 21 21 20 20 20 21 22 21 21 21 19 17 20 22 23 23 22 21 21 22 23 24 25 26 27 27 26 25
59 59 59 58 58 57 56 55 53 52 50 49 48 47 46 45 45 44 43 42 41 41 41 42 41 40 39 38 36 36 35 35 35 36 37 38 39 39 39 39 40 40 39 38 37 36 35 34 33 32 31 30 29 29 29 27 26 26 25 24 24 23 23 22 23 24 24 24 24 23 22 20 23 24 25 25 24 23 22 23 24 25 27 28 29 28 28 27
58 59 59 59 58 58 57 56 54 53 52 51 50 49 48 47 46 45 44 43 42 42 42 43 43 42 41 39 38 37 36 36 36 37 38 39 40 41 41 41 41 41 41 40 39 38 37 36 35 35 33 32 32 32 31 29 28 27 27 27 26 25 25 25 26 26 26 27 26 26 25 23 24 26 27 28 26 25 24 24 26 27 28 29 29 28 28 28
56 58 59 59 59 59 58 57 56 55 53 52 52 51 50 49 48 47 46 45 44 44 44 44 44 44 42 40 39 38 37 37 37 37 38 39 41 42 43 43 43 43 43 42 41 40 39 38 37 36 34 34 35 35 33 31 30 30 29 29 28 27 27 28 28 28 28 29 28 28 28 26 26 27 29 30 29 26 25 26 27 28 29 30 29 29 29 29
53 56 58 59 59 59 59 58 57 56 55 54 53 52 51 50 50 49 48 47 46 45 45 45 45 45 44 42 41 40 39 38 38 39 39 40 42 43 45 45 45 45 44 44 43 42 41 40 39 37 36 38 38 36 34 33 32 32 31 31 30 30 30 30 30 30 31 31 30 30 31 30 28 28 29 31 31 28 28 28 28 28 29 30 30 30 30 30
51 53 56 57 59 59 59 59 58 57 56 55 54 54 53 52 52 51 50 49 48 47 46 46 46 46 46 44 42 41 40 40 39 40 40 41 43 44 46 46 46 46 45 45 44 44 43 43 40 38 38 41 40 37 35 35 34 34 33 33 33 32 32 32 32 33 33 34 33 33 34 32 31 31 30 30 31 30 30 30 29 29 30 30 31 32 32 31
50 51 53 55 57 58 59 59 59 58 57 57 56 55 54 54 53 52 51 51 50 49 48 47 47 47 47 46 44 42 41 40 40 40 41 42 43 45 46 47 48 48 47 47 47 46 46 44 41 40 42 42 41 38 36 36 36 35 35 35 34 34 34 34 34 34 35 36 35 35 36 34 33 34 32 31 31 31 30 30 30 30 31 31 32 33 32 30
51 51 52 53 55 56 57 58 58 58 58 57 57 56 56 55 54 54 53 53 52 51 50 49 48 48 48 47 46 44 42 41 41 41 41 42 44 45 47 48 49 50 49 49 49 48 48 46 44 43 44 44 42 40 38 38 37 38 37 37 36 36 36 36 35 36 36 37 38 38 38 37 35 35 33 32 33 32 31 31 31 31 32 33 34 34 32 29
52 52 52 52 53 54 56 57 58 58 58 58 57 57 57 56 56 55 55 54 54 53 52 51 50 49 48 48 47 46 45 43 42 42 42 43 44 46 47 49 50 51 51 51 50 50 49 48 47 46 46 45 44 42 40 40 40 39 38 38 38 37 38 38 37 37 37 38 39 39 41 40 37 36 34 33 34 33 32 32 32 33 34 35 35 32 30 28
51 52 52 52 52 53 54 55 56 57 57 57 57 57 56 56 56 56 55 56 56 55 54 52 51 50 49 48 48 47 47 45 44 44 43 43 44 45 47 49 50 51 52 52 52 52 51 50 49 47 46 46 44 43 42 42 41 40 40 39 39 39 39 39 39 39 39 39 38 39 42 41 38 38 36 35 35 34 33 32 32 34 36 36 34 30 28 27
52 52 51 52 52 52 53 54 54 55 55 55 56 55 55 55 55 56 55 57 59 57 55 54 52 51 50 49 48 48 48 47 45 45 45 45 45 45 46 48 49 50 51 52 53 53 52 51 49 48 46 46 45 45 44 43 42 42 41 40 40 40 40 40 39 39 40 40 39 40 43 43 39 38 38 37 36 35 34 32 32 34 36 35 32 29 27 26
55 53 52 52 52 52 52 53 53 53 53 53 54 53 53 53 53 55 54 57 61 58 55 56 54 52 50 49 49 49 49 47 45 46 46 45 45 45 46 47 47 49 49 51 53 53 52 50 49 48 47 47 47 46 44 43 44 44 43 41 41 41 40 40 39 40 40 40 41 43 45 46 41 37 38 39 37 37 35 33 33 34 35 32 29 26 25 25
58 56 55 53 52 52 52 52 52 52 52 52 52 51 52 52 52 53 52 56 62 59 56 56 55 54 52 51 50 50 50 48 46 46 46 46 46 46 46 45 46 47 48 50 52 52 52 51 50 50 50 50 48 46 45 44 45 45 44 43 42 41 41 40 39 40 40 41 44 46 46 47 44 40 41 40 38 38 37 35 35 35 33 29 26 24 24 24
61 60 58 56 55 54 54 53 53 53 52 52 52 52 52 52 52 53 53 57 63 61 58 56 55 55 54 53 52 51 50 49 48 47 46 46 47 46 46 46 46 46 48 49 50 51 52 51 51 51 51 50 48 46 45 45 45 45 45 44 43 42 40 39 39 39 40 43 47 48 46 46 46 42 40 39 39 40 39 37 37 36 32 28 26 25 25 25
63 62 61 60 58 56 55 54 53 53 53 52 52 52 52 52 52 53 55 60 62 62 60 57 56 56 54 53 52 52 51 50 49 48 46 47 47 46 46 46 47 47 48 48 49 51 52 51 51 51 50 49 48 47 46 45 45 45 45 44 43 41 40 40 41 41 43 47 48 48 46 47 47 43 38 38 39 41 41 40 40 37 33 29 28 27 27 27
64 65 64 62 60 59 58 56 55 54 53 53 52 52 53 52 53 55 57 58 58 61 61 58 56 55 54 53 51 51 51 51 50 49 47 46 47 47 47 47 47 47 48 48 48 49 50 50 50 49 49 48 48 47 47 46 46 44 44 42 41 41 41 42 43 44 47 48 47 46 47 48 49 44 39 40 40 41 42 42 42 40 36 33 31 29 29 29
66 66 65 64 63 62 60 59 58 56 56 55 54 54 53 53 56 58 57 54 56 62 62 58 55 54 53 53 52 51 50 50 50 50 48 47 47 47 46 46 46 46 47 46 47 48 48 48 48 48 48 48 48 48 47 46 45 43 42 40 41 42 43 45 47 47 48 47 46 46 48 50 49 43 41 41 41 42 43 43 43 40 38 36 34 32 32 32
66 67 67 66 65 64 64 63 61 60 59 57 57 57 56 57 60 59 57 56 58 63 61 57 55 54 54 54 53 52 51 51 50 50 49 49 49 48 47 47 47 48 48 47 47 48 48 48 48 49 49 48 48 47 46 45 43 42 42 42 43 44 46 48 48 48 48 46 46 47 50 52 49 43 43 43 42 42 43 44 43 40 38 38 35 35 35 35
62 64 67 67 67 67 66 65 64 63 62 61 60 60 60 62 62 59 58 58 60 61 59 57 56 54 54 54 53 52 51 50 50 50 50 49 49 49 48 48 47 47 47 47 48 48 48 49 48 47 48 47 46 45 44 43 43 44 44 44 45 45 47 48 48 48 48 48 48 50 52 53 48 45 45 45 43 42 42 43 44 41 39 38 37 37 38 38
57 58 61 66 69 69 68 68 67 66 66 65 64 64 65 65 62 59 59 60 60 59 59 59 57 55 54 53 52 51 50 49 49 49 49 49 48 47 46 46 45 46 46 46 47 47 48 48 46 45 46 45 44 44 43 43 44 44 44 45 46 46 46 47 47 48 49 51 52 52 54 52 49 47 47 46 44 43 43 43 42 41 40 39 39 40 41 41
57 56 57 59 64 69 69 68 69 69 68 68 69 70 69 65 61 60 61 60 59 58 58 60 59 57 55 53 52 52 50 49 48 48 48 48 48 46 45 44 43 44 44 45 46 46 46 46 45 45 44 44 44 44 44 44 45 45 46 47 47 46 45 46 48 49 51 53 54 54 54 52 51 48 45 44 44 44 45 43 42 41 41 41 41 41 42 44
59 59 58 54 54 62 67 67 69 70 70 70 73 72 69 64 62 62 61 59 59 58 58 60 59 58 56 54 53 51 50 50 48 47 47 47 47 45 43 43 42 42 42 42 44 45 45 46 45 45 45 45 45 45 46 46 47 48 49 48 46 46 48 48 50 51 52 54 55 55 54 53 52 47 40 41 44 44 44 43 42 42 42 43 44 43 43 45
55 58 60 56 53 58 64 66 68 68 68 72 73 70 65 62 61 62 62 61 60 60 60 60 60 59 57 56 54 53 53 52 51 49 48 48 47 44 42 42 41 40 40 41 43 44 44 45 45 45 46 46 46 46 48 48 49 49 49 47 47 48 49 49 51 52 53 56 57 55 55 53 48 43 40 42 44 43 44 44 44 44 45 46 46 45 45 45
47 50 53 54 53 56 60 64 67 66 68 72 72 66 61 59 59 61 63 62 63 64 63 62 62 62 61 59 58 57 57 56 54 53 52 51 49 45 44 44 43 42 43 43 44 44 44 46 47 47 47 47 48 48 49 49 49 48 47 48 49 50 51 52 53 54 54 56 57 57 57 50 40 39 42 43 44 44 46 46 46 46 47 49 48 45 45 47
46 46 47 50 53 55 55 59 66 71 72 71 66 61 58 58 59 59 59 59 61 63 64 64 65 65 64 63 62 61 60 59 58 58 57 55 53 50 48 47 47 46 46 46 46 45 46 48 49 50 50 51 50 49 49 48 48 48 49 50 51 52 54 54 55 56 55 56 57 59 59 46 35 39 43 44 45 48 49 48 47 49 49 50 49 47 47 49
50 48 46 49 55 57 56 59 66 71 73 70 65 59 58 58 58 57 57 57 58 57 57 59 63 65 65 65 64 63 63 63 61 60 60 58 56 54 53 52 51 51 50 50 49 48 49 49 50 51 52 52 51 50 49 49 51 52 52 54 54 55 55 55 57 58 57 57 57 61 62 47 36 41 44 46 49 50 52 52 50 52 55 53 50 49 50 51
54 51 46 47 53 57 59 62 66 70 71 69 65 61 60 60 59 58 59 58 58 56 54 55 57 59 61 61 62 63 63 63 63 62 61 59 57 56 56 56 55 54 54 54 53 52 51 52 53 54 55 55 54 54 54 55 56 57 58 59 58 59 59 58 58 58 57 58 58 62 65 50 38 43 45 48 52 51 53 58 54 54 58 57 53 51 52 52
56 54 52 49 49 52 55 58 63 68 70 69 67 66 65 64 63 62 61 60 60 59 58 58 57 57 57 57 57 59 59 59 60 59 59 59 58 58 59 59 59 58 58 58 57 56 55 56 57 58 58 58 58 59 59 60 61 62 63 63 61 61 60 58 58 58 58 61 61 64 67 52 41 46 48 50 55 55 55 60 59 56 57 59 57 55 54 52
60 60 59 55 53 53 55 56 57 60 64 65 67 69 70 68 65 63 62 62 62 61 60 60 60 59 59 58 58 58 58 58 57 55 55 56 56 56 58 60 61 61 61 60 59 58 57 57 57 58 60 62 63 64 65 65 65 65 63 62 61 61 59 58 58 57 58 63 63 65 66 54 46 51 54 54 57 58 58 60 59 58 59 60 59 55 53 49
65 65 64 62 60 58 58 58 56 55 56 58 62 67 71 70 65 62 62 63 64 64 63 62 62 62 61 61 61 61 61 60 59 58 57 56 55 55 56 57 59 60 60 60 59 58 57 57 57 59 62 67 68 68 67 64 61 60 60 60 60 59 58 57 56 56 61 66 66 67 67 59 55 57 58 58 58 59 60 60 60 62 62 60 56 52 49 47
66 67 67 66 65 64 62 60 59 57 56 55 57 61 67 69 65 61 61 61 62 62 62 62 63 63 64 64 63 64 63 62 62 62 62 61 60 59 58 58 58 59 59 59 58 57 58 59 59 61 63 66 66 65 63 61 59 60 60 59 59 58 57 57 58 62 66 67 68 68 67 64 61 60 59 59 60 60 61 62 63 64 62 57 53 51 49 47
68 68 68 66 66 67 67 66 64 62 59 57 56 57 61 64 63 61 60 59 58 58 58 59 60 61 63 64 63 64 64 64 65 66 65 64 64 64 63 63 62 61 60 60 59 60 62 62 61 61 62 62 60 60 60 61 61 61 61 61 61 61 61 63 65 67 68 70 70 67 67 68 65 60 61 61 60 61 62 62 62 61 59 54 50 50 50 50
70 69 68 67 67 68 68 69 68 65 62 61 59 58 59 60 59 58 57 55 55 57 57 58 59 59 60 61 62 63 63 63 65 66 66 66 67 67 66 65 64 62 61 61 62 63 65 65 63 63 63 61 59 58 59 60 61 62 63 64 64 64 65 68 69 68 67 71 72 67 68 70 65 60 62 61 60 61 60 57 56 55 54 50 47 48 50 50
71 71 70 70 70 68 67 68 69 70 69 67 65 61 60 59 57 55 53 51 53 56 56 56 57 58 59 58 59 61 61 62 63 63 64 65 66 68 68 67 67 65 63 63 63 64 65 65 63 63 64 62 59 58 60 61 62 63 63 63 63 64 66 67 67 66 65 68 70 66 65 66 61 58 56 53 52 52 48 46 48 49 49 47 46 47 48 47
72 72 72 72 71 69 68 68 70 72 73 73 71 66 61 60 58 54 51 51 53 54 55 55 55 56 58 58 58 58 57 57 57 57 58 59 59 61 63 65 66 66 65 64 63 63 63 62 61 62 62 60 57 58 61 60 59 59 59 61 61 62 64 65 64 62 61 63 62 58 57 57 54 49 45 42 43 45 44 43 44 43 43 44 44 45 46 46
72 73 74 74 72 71 71 70 70 71 73 75 74 70 67 63 59 55 52 51 52 54 53 53 52 53 54 56 57 55 52 51 52 51 51 51 53 54 54 56 57 58 59 60 60 60 59 59 59 60 61 60 57 56 58 56 54 55 57 56 55 57 61 61 58 56 56 56 53 52 54 53 47 41 40 41 43 44 43 41 39 38 39 40 42 43 44 45
71 72 74 74 74 73 73 72 71 72 73 74 73 71 70 68 64 63 60 54 50 51 51 50 51 52 52 53 52 50 47 47 48 49 48 47 49 51 51 50 50 51 51 51 52 54 55 57 57 57 58 56 53 53 55 54 55 58 56 51 51 56 58 55 53 52 51 51 51 52 53 48 43 42 43 44 43 42 40 39 39 39 38 38 39 40 40 41
Wind_Direction
190 189 189 189 189 189 190 190 191 192 193 194 195 197 198 199 200 200 200 199 199 199 199 200 200 200 201 200 201 203 204 206 207 209 210 210 210 211 212 213 214 215 216 216 216 216 214 211 209 209 208 204 201 201 207 218 232 246 257 268 280 289 292 290 292 289 277 276 281 294 309 320 329 340 347 353 356 357 357 355 353 351 348 344 339 333 328 323
192 191 191 191 192 192 193 194 194 195 196 197 199 200 201 202 202 201 201 200 199 199 199 200 201 202 203 204 205 207 209 210 211 212 212 211 211 211 211 211 211 212 212 212 211 211 210 207 206 206 204 202 203 206 214 222 233 243 250 263 277 285 288 289 294 294 284 285 295 302 309 315 324 334 340 347 352 354 354 353 350 348 347 344 340 335 329 324
195 194 193 193 194 195 196 197 197 198 199 200 202 203 203 203 202 202 201 201 200 200 200 201 202 204 206 208 210 212 214 215 215 214 213 212 211 211 210 209 208 209 208 208 207 207 206 204 203 202 201 203 207 214 219 225 231 238 245 260 270 275 284 293 302 307 306 309 310 312 314 316 323 330 335 341 347 350 351 350 348 347 345 342 339 336 331 326
197 197 196 196 196 197 198 199 200 201 202 203 204 205 204 204 203 202 202 201 202 202 203 204 205 207 209 212 214 216 218 218 216 214 212 211 210 209 209 207 206 206 205 204 203 204 203 201 200 201 203 207 212 217 220 225 229 235 244 253 262 273 285 295 306 315 321 324 323 323 323 324 327 331 334 338 342 345 346 346 346 344 342 340 337 335 332 328
200 199 199 199 199 200 200 201 202 204 205 206 207 207 206 204 203 203 202 203 203 205 206 207 209 210 212 215 216 218 219 218 216 213 211 209 208 207 207 205 204 204 203 201 201 201 199 198 199 202 206 210 214 217 219 224 229 234 244 250 260 275 286 294 307 317 323 325 325 326 327 328 330 331 332 335 338 339 340 341 341 341 340 338 335 333 331 328
203 202 201 201 201 202 202 203 205 206 208 209 209 209 208 206 205 204 204 204 205 206 208 209 211 212 214 216 217 217 218 217 215 212 209 207 206 205 204 203 203 202 201 199 199 198 197 198 201 205 209 212 214 217 219 225 231 235 243 252 261 271 279 290 302 309 315 317 319 321 323 324 327 329 330 333 333 333 333 335 336 337 337 335 333 332 329 327
206 205 204 204 204 204 205 205 207 208 210 211 212 212 210 208 207 206 206 206 206 208 209 211 212 214 214 216 217 217 217 215 213 210 208 206 205 204 203 202 202 201 200 198 197 196 198 201 205 208 211 213 215 219 223 229 236 238 244 250 257 265 275 285 294 299 304 309 311 313 318 320 323 324 326 330 329 328 329 331 333 334 334 333 332 331 330 327
208 208 207 207 206 207 207 208 209 211 212 214 214 214 213 211 209 208 208 207 208 209 210 212 213 214 215 216 217 217 216 214 211 209 207 205 204 204 203 202 201 200 199 197 196 197 201 204 207 210 212 215 219 223 227 232 238 242 245 250 255 263 271 278 286 292 296 300 303 308 313 315 318 318 321 328 326 324 327 329 330 331 331 331 331 331 330 327
210 210 209 209 209 209 210 210 211 213 214 216 216 216 214 212 211 210 210 210 209 210 211 213 214 215 215 215 216 217 216 213 210 208 206 205 204 204 204 203 201 200 199 198 198 201 204 206 208 211 213 217 222 226 230 233 238 242 245 250 255 261 267 274 280 286 290 294 297 303 309 311 312 311 316 324 322 322 325 326 328 328 328 329 330 329 328 326
210 211 211 211 211 211 211 212 213 215 216 218 218 217 216 214 213 212 212 212 211 212 212 213 214 215 215 215 217 217 216 213 210 208 206 206 205 205 205 204 202 201 200 200 202 204 207 208 210 213 216 221 225 229 233 235 238 242 244 249 254 260 265 271 277 281 285 290 294 299 304 307 307 306 313 319 317 319 321 322 325 325 326 327 328 327 325 323
211 211 212 212 212 212 213 214 215 216 218 219 220 219 217 216 215 214 214 214 214 214 214 215 215 216 216 216 217 218 216 214 211 209 208 207 207 206 206 205 204 203 203 203 205 208 209 211 212 215 219 223 228 231 235 237 239 242 245 249 254 259 264 269 274 278 282 287 290 294 300 302 301 303 309 313 313 316 318 320 322 322 324 326 325 325 322 320
212 212 212 213 214 214 215 216 216 218 219 220 220 219 219 218 217 217 217 217 216 216 216 217 217 217 217 217 218 218 217 216 213 211 210 209 209 209 208 207 206 205 205 207 209 211 212 213 216 218 221 225 229 233 236 238 240 243 246 250 255 260 264 268 271 275 280 284 287 291 300 300 298 302 306 308 310 313 315 318 320 319 321 323 323 322 321 319
213 213 213 214 215 216 216 217 218 219 220 220 220 220 220 219 219 219 219 219 219 218 218 219 218 219 218 218 220 220 219 218 215 213 212 211 211 211 210 209 208 207 208 210 211 213 215 217 219 221 225 228 231 234 238 240 242 245 248 252 256 261 265 268 271 276 279 283 287 293 302 300 298 302 304 304 308 311 314 317 317 318 319 321 321 320 320 318
214 214 214 214 215 216 217 218 219 219 220 221 221 221 221 221 221 221 221 221 221 221 221 221 220 220 220 220 221 221 221 220 218 216 214 213 213 213 212 211 210 210 211 212 214 216 218 220 222 225 228 231 234 237 239 243 245 248 251 255 258 262 266 270 273 276 279 283 288 293 302 301 300 302 302 303 308 310 313 315 316 317 317 318 318 319 319 317
216 216 215 215 216 217 217 218 219 220 221 221 221 222 222 222 223 223 223 223 223 223 223 223 222 222 222 222 223 223 223 223 221 219 217 216 215 215 214 214 213 213 214 215 216 218 221 223 225 228 230 233 236 239 242 245 248 250 253 257 261 264 266 270 274 277 280 283 287 291 299 303 301 302 303 305 308 310 312 314 314 315 315 316 316 317 317 315
218 218 217 217 217 218 218 219 220 221 221 221 222 222 223 223 224 225 225 225 226 225 225 224 224 223 223 223 224 224 224 225 223 221 220 218 218 217 216 216 216 216 217 218 219 221 223 225 228 230 232 235 238 241 243 246 249 252 255 259 262 265 267 271 274 277 280 283 286 290 297 302 300 301 304 306 308 309 311 312 312 312 313 314 314 315 314 313
219 219 219 219 219 219 219 220 220 221 221 222 222 223 223 224 225 226 226 227 227 227 227 226 225 224 224 224 225 225 225 226 225 224 222 221 220 219 218 218 219 219 220 221 222 223 225 227 229 232 234 236 239 242 244 246 249 253 256 259 261 265 269 272 274 276 279 283 285 288 294 299 299 301 304 306 308 310 311 310 310 311 312 312 313 313 314 313
220 220 220 220 220 221 221 221 222 222 222 223 223 223 224 225 226 227 227 228 228 228 228 227 226 225 225 225 225 226 226 226 227 227 225 223 222 222 221 221 221 221 222 223 224 226 227 229 231 233 235 238 241 243 245 247 250 253 256 259 262 265 268 271 273 275 279 282 285 288 292 296 298 301 303 304 307 310 310 308 309 310 310 310 311 312 313 312
220 221 221 221 221 222 222 223 223 224 224 224 224 224 225 226 226 227 228 228 229 229 228 227 226 226 226 225 226 227 228 228 228 229 228 226 225 224 224 223 223 223 224 225 226 228 229 231 233 234 237 239 241 243 246 248 251 253 256 259 263 266 268 270 272 275 278 280 284 288 290 293 296 299 300 302 307 310 308 306 307 309 307 307 309 312 312 311
220 221 221 222 222 222 223 223 224 225 226 226 227 227 227 227 227 228 229 229 230 230 229 228 227 226 226 226 227 229 230 230 230 230 230 229 227 227 226 225 225 225 226 227 228 230 231 233 234 236 238 240 242 244 247 249 251 253 256 260 263 265 268 269 272 275 277 279 283 287 289 291 294 295 296 300 305 308 305 304 305 305 304 306 309 310 310 309
220 221 221 222 223 223 223 224 224 225 226 227 228 228 229 229 229 230 230 231 231 230 230 229 228 227 227 228 229 230 232 232 232 232 232 231 230 229 228 228 228 228 228 229 230 231 233 234 236 238 240 242 243 245 247 250 252 254 257 260 263 265 267 269 271 273 276 280 284 286 287 290 293 293 294 298 302 305 304 303 303 303 303 305 307 308 308 307
219 220 221 222 222 223 224 225 225 226 226 227 228 229 230 230 231 231 231 232 232 231 231 230 229 229 229 230 231 232 234 235 235 235 235 234 233 232 231 230 230 230 230 231 232 232 234 235 237 239 241 243 245 246 248 250 253 255 258 260 263 264 266 268 270 273 277 280 283 285 286 289 290 291 294 296 299 301 300 300 301 301 302 303 305 306 305 303
217 219 221 222 222 223 224 225 226 226 227 228 228 229 230 231 232 232 233 233 233 232 232 232 231 231 231 232 232 233 235 236 236 237 237 236 235 233 233 233 232 232 232 232 233 234 235 237 238 240 242 244 246 247 249 251 254 256 258 261 263 264 265 267 270 273 277 280 283 285 286 286 287 289 294 297 299 299 297 298 300 300 301 302 303 304 302 298
217 218 219 221 222 223 224 225 226 226 227 228 229 230 230 231 232 232 233 234 234 234 233 233 233 233 233 233 234 234 235 236 238 238 238 238 237 235 234 234 234 234 234 234 234 235 236 238 239 241 243 245 247 249 251 253 255 256 259 261 262 264 266 269 272 274 276 279 282 285 286 286 286 289 293 296 297 297 297 299 301 301 301 303 304 302 297 292
217 218 218 220 222 223 224 225 225 226 227 228 229 230 231 231 232 232 233 234 234 234 234 234 234 235 234 235 236 236 237 237 238 240 239 239 239 237 236 235 235 235 235 236 236 237 238 239 241 242 244 247 249 251 252 254 255 257 258 260 262 264 268 270 272 274 276 278 281 284 286 286 287 291 294 295 295 295 296 299 301 301 303 305 304 299 294 291
217 218 219 219 220 222 224 225 225 226 227 228 229 230 231 232 232 232 233 234 233 233 234 235 235 236 236 237 237 238 239 238 239 241 241 240 240 239 238 237 237 237 237 237 238 238 239 241 242 244 246 248 250 252 253 254 255 256 258 260 263 266 268 270 272 275 276 278 281 283 284 285 287 290 293 294 294 294 296 298 300 302 305 306 302 298 296 294
215 216 218 219 220 221 222 224 225 226 226 227 228 229 231 231 232 232 233 234 233 232 234 235 235 236 237 238 238 239 239 239 240 241 242 242 242 241 241 240 239 239 240 240 240 240 241 243 244 246 247 248 249 251 253 254 256 257 259 262 264 266 268 270 272 274 276 279 281 282 284 285 287 290 292 292 293 294 296 298 301 304 306 304 299 298 300 298
215 215 216 217 218 219 221 222 223 224 224 225 226 227 229 230 231 232 232 234 233 231 232 235 236 236 236 237 238 239 239 238 239 241 241 243 242 242 242 242 242 242 241 241 241 241 242 243 244 245 246 248 249 251 253 255 257 259 261 263 265 266 268 270 271 274 277 279 280 281 283 285 288 290 291 292 294 295 296 298 302 307 307 300 296 297 300 301
218 217 216 216 217 218 220 220 221 222 223 223 224 225 226 228 229 230 232 233 233 232 232 234 236 237 237 237 238 240 240 239 240 240 240 242 243 242 243 243 243 243 243 243 243 242 243 243 245 246 247 249 250 252 254 256 258 261 262 264 265 266 267 270 272 275 278 278 279 281 283 285 287 287 288 292 294 294 296 300 303 307 305 297 292 294 296 298
220 219 218 217 217 218 219 220 221 221 222 222 223 224 225 226 227 228 231 232 233 234 234 233 234 237 237 238 239 240 241 241 241 241 240 241 243 243 243 244 244 244 244 244 244 244 245 245 246 247 248 250 252 253 255 257 258 260 261 263 265 267 270 272 274 275 276 276 279 281 283 285 286 285 288 291 291 293 298 301 303 305 301 293 290 291 295 297
223 221 220 219 218 218 218 220 221 222 223 223 223 224 224 226 227 228 231 233 235 237 236 234 234 236 238 239 239 239 240 240 241 242 241 241 243 244 244 245 246 247 247 247 247 248 248 248 249 250 250 252 253 254 255 256 258 259 261 264 267 270 271 271 273 273 273 276 279 281 282 283 282 285 289 291 291 295 299 301 303 304 299 292 290 294 297 298
227 224 222 221 220 219 219 219 220 221 223 224 225 225 226 227 227 229 231 233 234 237 237 236 235 235 237 238 238 239 239 239 240 242 241 241 241 242 244 245 247 248 249 249 250 250 251 251 251 251 251 251 252 253 255 257 259 262 264 266 267 268 269 270 272 272 274 277 280 280 280 279 280 285 289 289 292 296 297 299 301 300 295 292 293 298 300 299
230 227 225 223 222 221 220 220 220 220 222 223 225 225 227 229 229 230 231 231 233 236 237 236 235 233 233 234 236 237 238 238 239 240 241 241 240 240 241 243 244 246 247 247 248 249 249 249 250 250 251 251 252 254 256 259 261 263 263 264 265 267 269 271 272 273 275 277 277 276 276 277 281 286 288 288 291 293 295 297 297 295 291 291 295 299 299 297
229 229 229 227 224 222 222 222 221 222 222 223 225 226 227 229 230 231 232 232 233 236 237 236 235 233 232 233 234 235 236 238 239 240 242 242 242 241 242 243 244 247 248 249 250 251 251 251 251 253 254 254 256 257 258 260 261 261 262 263 264 267 269 271 272 273 274 274 273 273 274 277 283 286 286 288 290 291 293 293 293 291 290 292 296 298 297 297
225 227 229 229 227 225 225 224 224 223 224 224 225 226 227 229 232 232 233 234 234 235 237 238 237 235 234 233 234 235 236 237 239 240 242 243 244 244 244 245 246 248 250 251 253 254 255 255 255 256 257 258 259 259 259 260 260 261 262 263 265 267 269 270 270 271 272 271 271 273 276 280 283 284 285 287 289 291 292 290 288 289 291 293 296 297 298 299
225 225 226 228 230 230 229 229 228 227 227 227 227 228 230 233 236 236 235 234 235 236 238 239 239 238 237 236 235 236 237 238 238 239 241 243 244 244 245 246 247 248 249 252 254 255 256 257 256 257 257 257 258 258 258 259 260 261 261 263 265 266 265 266 267 268 269 270 273 276 278 280 282 282 283 287 288 290 289 287 286 287 289 292 294 296 298 299
227 228 228 228 228 231 231 232 233 232 231 231 231 232 235 238 239 238 238 237 237 238 239 241 243 242 242 240 239 239 240 241 240 240 241 243 244 244 245 247 248 250 250 252 254 255 256 256 256 256 256 256 256 257 257 257 258 260 261 262 263 263 263 265 267 268 270 272 274 276 277 280 281 281 283 285 286 287 286 285 285 287 289 292 294 296 296 296
224 228 229 228 226 228 230 231 232 234 234 234 235 236 238 239 240 241 242 242 241 241 242 243 245 246 245 245 243 243 244 244 243 243 243 243 244 244 246 248 249 250 251 251 252 253 254 255 254 254 255 255 255 255 255 256 257 259 260 261 261 263 264 265 267 269 271 272 274 276 278 279 280 282 284 284 285 285 284 283 284 287 290 291 292 294 295 296
215 220 225 227 227 228 229 231 232 233 233 233 234 236 237 238 238 239 241 241 242 242 242 242 244 246 246 246 245 245 245 245 244 244 244 244 243 243 244 245 246 248 248 248 249 250 251 252 252 251 252 252 252 252 254 255 257 258 259 260 261 263 264 265 266 268 270 272 274 276 278 279 281 283 283 283 283 283 282 283 285 287 289 289 291 293 296 297
210 213 217 222 227 229 230 232 233 234 235 235 234 233 234 235 236 237 238 239 240 240 240 241 243 244 245 245 245 245 246 245 244 245 245 244 243 242 242 242 243 244 245 246 247 247 248 249 250 250 250 251 252 253 255 256 257 258 259 259 261 262 264 265 266 267 268 270 273 276 278 279 279 280 281 281 282 282 282 284 286 287 287 288 293 296 297 298
210 209 211 216 222 226 227 229 231 232 234 236 236 233 233 234 235 236 236 237 238 239 239 240 242 243 244 245 246 246 247 247 246 246 245 244 243 242 243 243 243 243 245 247 247 248 249 250 251 251 251 252 254 255 256 256 256 257 258 259 260 261 262 262 264 266 268 270 273 276 277 277 278 279 281 281 281 282 285 286 288 291 291 291 294 297 298 299
213 207 207 211 216 220 223 225 228 231 232 233 234 234 234 235 235 236 237 236 237 239 239 240 241 242 243 244 246 247 248 249 248 248 247 246 244 244 244 245 245 245 245 247 248 249 251 252 251 251 251 251 252 253 253 254 255 256 257 258 258 259 261 262 264 267 270 271 273 275 276 278 280 279 279 280 281 284 288 289 291 293 293 294 296 297 298 298
219 212 211 212 212 214 219 222 225 228 230 231 232 233 234 235 235 236 237 237 238 239 239 239 239 240 241 243 245 246 248 249 249 249 249 248 247 245 245 246 246 246 246 247 248 249 251 252 252 252 252 252 252 253 253 254 255 256 257 259 260 262 264 265 267 269 269 271 273 274 275 277 279 277 278 281 283 287 289 289 291 292 293 294 296 297 297 297
225 222 220 218 215 214 217 221 225 226 228 229 231 231 231 233 234 235 236 237 238 239 238 238 238 239 240 242 244 245 247 248 249 249 249 249 248 246 246 246 247 248 248 249 249 250 251 252 252 253 253 253 253 253 254 254 256 258 260 262 264 265 267 267 268 269 269 270 272 271 272 277 281 281 282 283 285 287 287 288 291 291 290 291 293 295 295 294
228 227 226 224 222 219 218 220 224 226 226 227 228 229 230 230 231 233 235 235 237 237 237 237 238 238 240 241 242 243 245 246 247 248 247 247 246 246 246 246 246 247 248 249 249 250 251 251 250 251 251 252 253 254 256 259 261 263 263 264 265 265 266 266 267 267 268 269 269 268 272 279 282 281 282 283 284 285 286 288 289 288 288 290 292 292 292 290
229 228 228 227 227 225 222 222 223 225 226 227 228 228 228 228 229 232 233 233 234 235 236 238 240 241 241 241 242 243 245 246 246 245 246 246 246 246 246 247 247 247 247 248 249 250 251 251 250 250 251 252 254 256 258 259 261 261 262 262 263 264 264 265 265 265 268 270 269 271 276 279 279 280 281 282 282 283 284 285 285 286 288 290 291 291 288 285
231 229 229 229 230 228 226 226 225 224 225 227 229 227 226 227 228 230 230 230 230 231 234 236 239 241 243 243 244 244 246 246 246 246 246 246 247 247 247 247 247 247 247 248 249 251 253 252 251 252 253 253 255 257 259 259 260 261 262 262 263 264 264 264 265 267 270 271 271 274 277 277 277 279 279 279 280 281 281 282 284 286 287 287 287 286 284 281
231 231 230 230 231 231 230 229 228 227 226 227 228 226 224 225 227 228 229 231 231 229 231 232 234 237 241 243 245 246 246 246 246 246 247 247 247 248 248 248 247 247 248 250 251 252 255 255 254 256 257 257 257 258 260 261 262 262 262 262 263 264 264 266 268 270 272 271 273 276 276 276 279 280 279 279 279 279 280 283 283 283 283 282 280 278 277 278
231 231 231 231 232 232 231 231 231 231 230 229 229 227 225 226 227 228 230 232 231 229 230 231 232 234 238 241 245 247 248 248 247 247 247 248 249 250 250 249 248 248 249 251 253 254 256 257 257 258 260 258 256 258 262 264 263 262 262 263 264 265 266 268 269 270 270 271 274 277 276 277 280 281 280 281 280 279 280 278 275 275 276 276 275 274 274 276
231 231 231 232 232 232 232 232 232 233 233 233 231 228 226 226 227 229 232 233 231 229 229 231 232 234 236 238 241 243 245 248 249 250 251 251 252 253 253 253 253 253 252 252 254 255 257 258 257 258 259 256 254 259 263 263 263 263 262 262 263 264 266 267 268 270 272 274 277 277 276 278 280 281 281 279 276 273 272 269 269 270 272 273 274 275 274 273
230 232 232 232 232 232 232 232 232 234 235 235 233 231 230 228 226 228 231 231 230 228 226 228 230 232 233 235 236 238 240 241 243 245 246 246 247 249 250 251 253 254 253 253 254 255 256 256 256 257 258 257 256 259 261 260 260 260 260 262 265 267 268 269 271 273 273 274 274 273 273 278 280 278 274 270 267 267 269 271 272 271 270 271 272 272 271 272
230 231 233 234 233 232 232 233 232 233 235 236 235 234 233 232 230 231 231 228 227 227 226 227 229 230 230 231 233 235 236 236 237 236 235 235 239 241 242 244 247 248 250 251 251 253 254 255 256 256 257 258 258 257 258 256 253 254 260 267 270 271 271 271 272 271 270 269 268 267 271 276 275 270 268 268 267 268 269 269 268 268 269 270 271 271 271 273
Height
5791 5794 5796 5799 5802 5805 5808 5810 5813 5815 5817 5819 5822 5824 5826 5828 5830 5832 5834 5836 5838 5840 5842 5844 5845 5847 5849 5851 5853 5855 5856 5858 5859 5861 5862 5864 5866 5867 5869 5870 5872 5873 5875 5876 5878 5879 5880 5882 5883 5884 5886 5887 5888 5889 5889 5890 5891 5892 5892 5893 5893 5894 5894 5894 5894 5895 5895 5895 5895 5895 5895 5895 5895 5895 5895 5895 5895 5895 5894 5894 5894 5893 5893 5893 5893 5892 5891 5891
5789 5792 5794 5797 5800 5803 5806 5808 5811 5813 5816 5818 5821 5823 5825 5827 5829 5831 5833 5835 5837 5839 5840 5842 5844 5846 5848 5850 5851 5853 5855 5856 5858 5859 5861 5863 5864 5866 5867 5869 5870 5872 5874 5875 5877 5878 5879 5881 5882 5883 5885 5886 5887 5888 5889 5889 5890 5891 5892 5892 5893 5893 5893 5893 5894 5894 5894 5894 5894 5894 5895 5894 5894 5894 5894 5894 5894 5894 5893 5893 5893 5893 5892 5892 5892 5891 5891 5890
5787 5790 5793 5796 5798 5801 5804 5807 5810 5812 5815 5817 5819 5821 5823 5825 5827 5829 5831 5833 5835 5837 5839 5841 5843 5845 5847 5848 5850 5852 5853 5855 5856 5858 5860 5861 5863 5864 5866 5868 5869 5871 5872 5874 5875 5877 5878 5880 5881 5883 5884 5885 5886 5887 5888 5889 5890 5890 5891 5892 5892 5892 5892 5893 5893 5893 5894 5894 5894 5894 5894 5894 5893 5893 5893 5893 5893 5893 5892 5892 5892 5892 5891 5891 5890 5890 5889 5889
5785 5788 5791 5794 5797 5800 5803 5805 5808 5811 5813 5815 5818 5820 5822 5824 5826 5828 5830 5832 5834 5836 5838 5840 5841 5843 5845 5847 5849 5850 5852 5853 5855 5856 5858 5860 5861 5863 5865 5866 5868 5870 5871 5873 5875 5876 5877 5879 5880 5882 5883 5884 5885 5886 5887 5888 5889 5890 5890 5891 5891 5891 5892 5892 5892 5893 5893 5893 5893 5893 5893 5893 5893 5893 5892 5892 5892 5892 5892 5891 5891 5891 5890 5890 5889 5888 5888 5887
5783 5786 5789 5792 5795 5798 5801 5803 5806 5809 5811 5813 5816 5818 5820 5822 5824 5826 5828 5830 5832 5834 5836 5838 5840 5842 5844 5845 5847 5849 5850 5851 5853 5855 5856 5858 5860 5862 5863 5865 5867 5868 5870 5872 5873 5875 5876 5878 5879 5881 5882 5883 5884 5885 5886 5887 5888 5889 5889 5890 5890 5890 5891 5891 5892 5892 5892 5892 5892 5892 5892 5892 5892 5892 5892 5891 5891 5891 5891 5891 5890 5890 5890 5889 5888 5887 5887 5886
5780 5783 5786 5789 5793 5795 5798 5801 5804 5807 5809 5811 5814 5816 5818 5820 5822 5824 5826 5828 5830 5832 5834 5836 5838 5840 5842 5844 5845 5847 5848 5850 5851 5853 5855 5856 5858 5860 5862 5864 5865 5867 5869 5870 5872 5874 5875 5877 5878 5879 5881 5882 5883 5884 5885 5886 5887 5888 5888 5889 5889 5890 5890 5890 5891 5891 5891 5891 5891 5891 5891 5891 5891 5891 5891 5891 5890 5890 5890 5890 5889 5889 5889 5888 5887 5886 5886 5885
5777 5780 5783 5787 5790 5793 5796 5798 5801 5804 5807 5809 5812 5814 5816 5818 5820 5822 5824 5826 5828 5830 5832 5834 5836 5838 5840 5842 5844 5845 5846 5848 5850 5851 5853 5855 5857 5859 5861 5862 5864 5866 5867 5869 5871 5872 5874 5875 5877 5878 5879 5881 5882 5883 5884 5885 5886 5887 5887 5888 5888 5889 5889 5889 5890 5890 5890 5890 5890 5891 5891 5890 5890 5890 5890 5890 5890 5889 5889 5889 5888 5888 5887 5887 5886 5885 5884 5883
5774 5777 5780 5784 5787 5790 5793 5796 5799 5801 5804 5807 5809 5811 5814 5816 5818 5820 5822 5824 5826 5828 5830 5833 5834 5836 5838 5840 5842 5843 5845 5846 5848 5850 5852 5853 5855 5857 5859 5861 5862 5864 5866 5867 5869 5871 5872 5874 5875 5877 5878 5879 5881 5882 5883 5884 5884 5885 5886 5887 5887 5888 5888 5889 5889 5889 5889 5889 5889 5889 5890 5889 5889 5889 5889 5889 5889 5888 5888 5888 5887 5886 5886 5885 5884 5884 5883 5882
5770 5774 5778 5781 5784 5787 5790 5793 5796 5798 5801 5804 5806 5809 5811 5814 5816 5818 5820 5822 5824 5826 5828 5831 5833 5835 5836 5838 5840 5841 5843 5845 5846 5848 5850 5852 5854 5856 5857 5859 5861 5862 5864 5866 5868 5869 5871 5872 5874 5875 5877 5878 5879 5880 5881 5882 5883 5884 5885 5885 5886 5886 5887 5887 5887 5888 5888 5888 5888 5888 5888 5888 5888 5888 5888 5888 5888 5887 5887 5886 5886 5885 5884 5883 5883 5882 5881 5880
5767 5771 5774 5777 5781 5784 5787 5790 5793 5796 5798 5801 5804 5806 5809 5811 5813 5815 5817 5820 5822 5824 5826 5829 5831 5833 5835 5836 5838 5839 5841 5843 5844 5846 5848 5850 5852 5854 5856 5857 5859 5861 5863 5864 5866 5868 5869 5871 5872 5874 5875 5876 5877 5879 5879 5881 5881 5882 5883 5884 5884 5885 5886 5886 5886 5886 5886 5886 5887 5887 5887 5887 5886 5886 5887 5887 5887 5886 5886 5885 5885 5884 5883 5882 5881 5880 5879 5878
5763 5767 5771 5774 5777 5780 5783 5787 5790 5793 5795 5798 5801 5803 5806 5808 5811 5813 5815 5817 5819 5822 5824 5826 5828 5830 5832 5834 5836 5837 5839 5841 5842 5844 5846 5848 5850 5852 5854 5856 5857 5859 5861 5863 5864 5866 5868 5869 5871 5872 5874 5875 5876 5877 5878 5879 5880 5881 5882 5882 5883 5883 5884 5884 5885 5885 5885 5885 5885 5886 5886 5886 5885 5885 5885 5885 5885 5885 5884 5884 5883 5883 5882 5881 5880 5879 5878 5877
5759 5763 5767 5770 5774 5777 5780 5783 5786 5789 5792 5795 5798 5801 5803 5806 5808 5810 5812 5815 5817 5819 5822 5824 5826 5828 5830 5832 5833 5835 5837 5839 5841 5842 5844 5846 5848 5850 5852 5854 5856 5857 5859 5861 5863 5864 5866 5867 5869 5870 5872 5873 5874 5875 5876 5877 5878 5879 5880 5881 5881 5882 5882 5883 5883 5883 5883 5883 5884 5884 5885 5884 5884 5884 5883 5883 5884 5883 5883 5883 5882 5881 5880 5879 5878 5877 5876 5875
5755 5759 5762 5766 5770 5773 5776 5780 5783 5786 5789 5792 5795 5797 5800 5802 5805 5807 5810 5812 5814 5817 5819 5821 5823 5826 5828 5829 5831 5833 5835 5836 5839 5840 5842 5844 5846 5848 5850 5852 5854 5856 5857 5859 5861 5862 5864 5865 5867 5868 5870 5871 5872 5873 5874 5875 5876 5877 5878 5879 5879 5880 5880 5881 5881 5882 5882 5882 5882 5883 5884 5883 5882 5882 5882 5881 5882 5882 5881 5881 5880 5879 5878 5878 5877 5875 5874 5873
5751 5754 5758 5762 5765 5769 5772 5776 5779 5783 5786 5789 5791 5794 5797 5799 5802 5804 5807 5809 5811 5814 5816 5818 5820 5823 5825 5827 5829 5831 5832 5834 5836 5838 5840 5842 5844 5846 5848 5850 5852 5853 5855 5857 5858 5860 5862 5863 5865 5866 5868 5869 5870 5871 5873 5873 5874 5875 5876 5877 5877 5878 5878 5879 5879 5879 5880 5880 5880 5881 5882 5882 5880 5880 5880 5880 5880 5880 5880 5879 5878 5877 5876 5875 5874 5874 5873 5871
5747 5751 5754 5758 5761 5765 5768 5772 5776 5779 5782 5785 5788 5791 5793 5796 5799 5801 5803 5806 5808 5811 5813 5815 5817 5820 5822 5824 5826 5828 5830 5832 5834 5836 5838 5840 5842 5844 5846 5847 5849 5851 5853 5854 5856 5858 5859 5861 5863 5864 5865 5867 5868 5869 5870 5871 5872 5873 5874 5875 5875 5876 5876 5877 5877 5877 5877 5878 5878 5879 5880 5880 5879 5878 5878 5878 5878 5878 5878 5877 5876 5875 5874 5873 5872 5871 5870 5869
5743 5747 5751 5754 5757 5761 5764 5768 5771 5775 5778 5781 5784 5787 5790 5793 5795 5798 5800 5803 5805 5807 5810 5812 5814 5817 5819 5821 5824 5826 5828 5829 5831 5834 5836 5837 5839 5841 5843 5845 5847 5849 5850 5852 5854 5856 5857 5859 5860 5861 5863 5864 5866 5867 5868 5869 5870 5870 5871 5872 5873 5873 5874 5875 5875 5874 5875 5875 5876 5876 5878 5878 5877 5876 5876 5876 5876 5876 5876 5875 5874 5873 5872 5870 5869 5869 5868 5867
5739 5744 5747 5751 5754 5757 5761 5764 5767 5771 5774 5777 5780 5783 5786 5789 5792 5794 5797 5799 5802 5804 5807 5809 5811 5814 5816 5819 5821 5823 5825 5827 5829 5831 5833 5835 5836 5838 5840 5842 5844 5846 5848 5850 5851 5853 5855 5856 5858 5859 5860 5862 5863 5864 5865 5866 5867 5868 5869 5870 5870 5871 5871 5872 5872 5872 5872 5873 5873 5874 5875 5876 5875 5874 5873 5873 5873 5874 5873 5872 5871 5870 5869 5868 5867 5866 5865 5864
5735 5739 5743 5747 5750 5754 5757 5760 5764 5767 5770 5773 5776 5779 5782 5785 5788 5791 5793 5796 5798 5801 5803 5805 5808 5811 5813 5816 5818 5820 5822 5824 5826 5828 5830 5832 5833 5835 5837 5839 5841 5843 5845 5847 5849 5850 5852 5854 5855 5856 5858 5860 5860 5861 5862 5864 5865 5866 5866 5867 5868 5868 5869 5869 5869 5869 5870 5870 5870 5871 5872 5873 5873 5871 5870 5870 5871 5871 5871 5870 5869 5868 5866 5865 5864 5863 5862 5861
5731 5735 5739 5742 5746 5749 5753 5756 5760 5763 5766 5769 5772 5775 5778 5781 5784 5787 5789 5792 5794 5797 5799 5802 5805 5807 5810 5813 5814 5816 5819 5821 5823 5825 5827 5829 5831 5832 5834 5836 5838 5840 5842 5844 5846 5847 5849 5851 5852 5854 5856 5857 5856 5858 5860 5862 5863 5863 5864 5864 5865 5866 5866 5866 5866 5867 5867 5867 5868 5868 5868 5870 5871 5870 5868 5867 5868 5869 5868 5867 5866 5865 5864 5862 5861 5861 5860 5858
5727 5731 5734 5738 5741 5745 5748 5752 5756 5759 5762 5766 5769 5772 5774 5777 5780 5782 5785 5788 5790 5793 5795 5798 5801 5803 5806 5809 5811 5813 5815 5817 5819 5821 5823 5825 5827 5829 5831 5833 5834 5836 5838 5840 5843 5845 5846 5848 5849 5851 5853 5852 5853 5855 5857 5859 5860 5860 5861 5862 5862 5863 5863 5863 5863 5864 5864 5864 5865 5866 5865 5866 5868 5867 5867 5865 5865 5866 5865 5864 5864 5862 5861 5860 5859 5858 5857 5856
5722 5726 5729 5733 5737 5740 5744 5747 5751 5754 5758 5761 5765 5768 5771 5773 5775 5778 5781 5783 5785 5788 5791 5793 5796 5799 5802 5804 5807 5809 5811 5813 5816 5818 5820 5822 5824 5826 5827 5829 5831 5833 5836 5838 5839 5841 5843 5844 5846 5848 5849 5849 5850 5853 5855 5855 5856 5857 5858 5858 5859 5860 5859 5860 5860 5861 5861 5861 5862 5862 5861 5863 5864 5864 5864 5864 5863 5863 5862 5861 5861 5859 5858 5857 5856 5855 5854 5852
5718 5721 5725 5728 5732 5736 5739 5743 5747 5750 5754 5757 5760 5763 5766 5768 5771 5774 5776 5778 5781 5784 5786 5789 5793 5795 5798 5800 5803 5805 5807 5810 5812 5814 5816 5818 5820 5822 5824 5826 5828 5830 5832 5834 5835 5837 5839 5841 5843 5844 5845 5845 5847 5850 5852 5852 5853 5854 5855 5855 5856 5856 5856 5856 5857 5857 5858 5858 5859 5859 5858 5859 5860 5860 5861 5861 5861 5861 5859 5858 5858 5856 5855 5854 5853 5852 5851 5850
5712 5717 5720 5724 5728 5731 5735 5738 5742 5746 5749 5752 5755 5758 5760 5763 5766 5769 5771 5774 5776 5779 5782 5785 5788 5791 5794 5796 5799 5802 5804 5806 5808 5810 5812 5814 5816 5818 5820 5822 5823 5826 5828 5830 5831 5833 5835 5837 5839 5840 5841 5842 5844 5847 5848 5849 5850 5850 5851 5852 5852 5852 5852 5853 5854 5854 5855 5855 5855 5855 5854 5855 5856 5857 5858 5858 5857 5857 5856 5856 5855 5853 5852 5851 5850 5849 5847 5846
5708 5712 5715 5720 5723 5726 5730 5734 5737 5741 5744 5747 5750 5752 5755 5758 5761 5764 5766 5768 5771 5775 5778 5781 5784 5787 5790 5792 5795 5798 5800 5802 5804 5806 5808 5810 5811 5814 5816 5817 5819 5822 5824 5826 5827 5829 5831 5833 5835 5836 5838 5839 5841 5843 5845 5846 5846 5846 5847 5848 5848 5848 5848 5849 5850 5851 5852 5852 5851 5851 5849 5849 5851 5853 5855 5855 5854 5854 5853 5852 5851 5850 5848 5848 5847 5845 5844 5843
5704 5707 5711 5715 5718 5722 5725 5729 5733 5736 5740 5743 5745 5748 5751 5753 5756 5758 5760 5762 5765 5770 5773 5777 5780 5783 5786 5789 5792 5794 5796 5798 5800 5801 5804 5805 5807 5809 5811 5813 5815 5817 5819 5821 5823 5825 5827 5829 5831 5833 5834 5836 5838 5840 5840 5841 5841 5843 5844 5844 5843 5844 5845 5846 5846 5847 5848 5848 5849 5848 5846 5844 5845 5849 5851 5851 5851 5850 5850 5849 5848 5846 5844 5843 5843 5841 5839 5839
5699 5703 5707 5710 5714 5717 5721 5725 5729 5731 5735 5737 5740 5743 5745 5748 5750 5752 5754 5755 5759 5765 5769 5773 5776 5779 5783 5786 5788 5790 5791 5794 5797 5798 5799 5801 5802 5805 5806 5809 5811 5813 5814 5816 5818 5821 5824 5825 5827 5829 5831 5833 5834 5835 5835 5836 5837 5838 5839 5840 5840 5841 5841 5842 5842 5843 5843 5844 5845 5845 5843 5840 5841 5844 5846 5846 5847 5847 5847 5846 5844 5842 5841 5840 5838 5837 5836 5835
5694 5699 5702 5706 5710 5712 5716 5721 5723 5727 5731 5732 5735 5738 5740 5743 5744 5746 5749 5748 5752 5761 5765 5767 5772 5776 5780 5781 5783 5785 5787 5791 5793 5793 5795 5796 5798 5801 5802 5804 5807 5809 5810 5812 5814 5818 5820 5821 5823 5825 5827 5828 5829 5830 5830 5831 5832 5834 5835 5836 5836 5837 5837 5838 5838 5838 5839 5840 5841 5840 5839 5838 5838 5840 5840 5841 5842 5843 5842 5842 5840 5839 5837 5836 5835 5833 5832 5832
5689 5693 5697 5701 5705 5708 5712 5715 5718 5722 5724 5726 5730 5732 5734 5737 5738 5741 5742 5740 5747 5758 5761 5763 5768 5772 5774 5776 5778 5780 5783 5787 5788 5788 5790 5791 5793 5795 5797 5800 5802 5803 5805 5807 5810 5814 5815 5816 5818 5820 5821 5823 5825 5825 5825 5826 5828 5830 5832 5832 5832 5832 5833 5833 5834 5834 5835 5837 5837 5835 5834 5834 5835 5836 5835 5836 5837 5837 5837 5837 5836 5835 5833 5832 5831 5830 5829 5829
5684 5688 5692 5696 5700 5703 5707 5710 5713 5715 5718 5721 5724 5725 5728 5730 5731 5734 5733 5734 5746 5754 5756 5760 5764 5766 5769 5771 5773 5775 5778 5782 5782 5784 5786 5786 5788 5790 5793 5795 5797 5798 5800 5803 5806 5808 5809 5811 5813 5814 5816 5819 5820 5821 5822 5823 5824 5826 5827 5827 5827 5827 5828 5829 5830 5831 5831 5831 5832 5831 5830 5830 5830 5830 5831 5833 5832 5830 5831 5832 5832 5831 5829 5828 5828 5827 5826 5826
5679 5683 5686 5690 5695 5699 5702 5705 5707 5710 5713 5716 5717 5720 5722 5722 5725 5726 5724 5733 5746 5749 5751 5756 5758 5760 5764 5766 5769 5771 5773 5775 5777 5779 5780 5782 5784 5786 5788 5790 5791 5793 5795 5798 5801 5802 5804 5807 5808 5810 5813 5815 5816 5817 5818 5819 5819 5821 5822 5822 5822 5823 5824 5825 5825 5827 5825 5825 5828 5827 5826 5826 5824 5823 5828 5830 5828 5826 5826 5826 5826 5826 5825 5824 5824 5824 5823 5823
5674 5678 5682 5686 5690 5693 5697 5699 5701 5704 5707 5710 5712 5714 5715 5717 5719 5716 5721 5737 5746 5743 5745 5750 5754 5757 5760 5762 5764 5766 5768 5769 5771 5773 5776 5778 5780 5781 5784 5785 5787 5789 5791 5794 5797 5798 5800 5802 5804 5807 5809 5811 5812 5812 5813 5813 5814 5816 5817 5818 5819 5819 5820 5820 5820 5821 5818 5820 5824 5822 5821 5821 5817 5818 5823 5825 5824 5823 5822 5820 5820 5820 5820 5819 5819 5820 5820 5819
5669 5672 5677 5681 5684 5687 5690 5692 5695 5699 5700 5704 5706 5707 5710 5711 5708 5710 5724 5739 5738 5733 5737 5744 5751 5754 5755 5756 5757 5759 5761 5763 5766 5767 5770 5773 5774 5777 5780 5781 5784 5785 5787 5791 5793 5793 5795 5798 5800 5802 5803 5805 5806 5807 5808 5809 5811 5812 5814 5815 5814 5814 5814 5814 5814 5814 5813 5817 5819 5817 5815 5813 5811 5815 5819 5820 5820 5819 5818 5816 5816 5815 5813 5813 5814 5815 5815 5814
5664 5667 5671 5675 5679 5682 5683 5685 5690 5692 5694 5697 5698 5701 5704 5701 5701 5712 5726 5731 5727 5727 5733 5739 5745 5747 5747 5749 5750 5753 5755 5757 5760 5762 5763 5766 5769 5772 5775 5776 5779 5779 5782 5786 5786 5787 5789 5791 5793 5795 5797 5800 5801 5803 5804 5806 5807 5808 5809 5809 5809 5808 5808 5808 5809 5808 5809 5812 5813 5812 5809 5805 5807 5812 5814 5815 5816 5816 5814 5812 5811 5810 5809 5808 5809 5810 5809 5809
5658 5662 5666 5670 5673 5674 5676 5680 5684 5686 5688 5690 5691 5694 5694 5692 5701 5715 5721 5721 5721 5723 5729 5733 5736 5737 5740 5743 5745 5748 5750 5752 5755 5757 5758 5761 5763 5767 5770 5772 5774 5776 5778 5780 5780 5782 5784 5786 5790 5791 5793 5795 5797 5799 5800 5801 5801 5801 5803 5803 5803 5804 5803 5802 5803 5803 5804 5806 5805 5805 5802 5801 5805 5808 5808 5809 5811 5811 5810 5808 5805 5805 5804 5804 5805 5805 5804 5804
5652 5657 5660 5664 5665 5667 5671 5675 5678 5680 5681 5682 5684 5685 5684 5689 5703 5712 5713 5714 5716 5720 5723 5724 5726 5730 5734 5738 5741 5743 5745 5748 5751 5752 5754 5756 5759 5763 5766 5769 5771 5773 5775 5775 5776 5779 5779 5781 5786 5787 5788 5791 5792 5793 5794 5795 5795 5796 5797 5797 5798 5800 5798 5796 5797 5797 5798 5797 5797 5799 5797 5798 5801 5802 5802 5804 5805 5806 5805 5803 5801 5800 5800 5800 5800 5799 5799 5798
5646 5650 5653 5657 5661 5664 5667 5670 5673 5674 5675 5676 5675 5675 5680 5692 5703 5705 5705 5709 5712 5716 5718 5716 5719 5723 5727 5732 5735 5738 5741 5743 5746 5747 5749 5752 5754 5758 5762 5765 5767 5768 5770 5771 5772 5773 5774 5777 5780 5781 5783 5785 5786 5787 5788 5789 5789 5790 5791 5792 5794 5795 5793 5791 5791 5791 5791 5789 5791 5794 5792 5794 5796 5796 5799 5800 5800 5800 5799 5797 5797 5796 5796 5796 5796 5796 5795 5793
5641 5644 5646 5651 5658 5660 5662 5666 5667 5667 5670 5670 5667 5671 5682 5693 5698 5699 5701 5705 5708 5711 5712 5712 5714 5718 5722 5727 5730 5734 5736 5738 5740 5743 5746 5747 5749 5754 5759 5761 5762 5764 5767 5767 5767 5768 5769 5771 5774 5775 5777 5778 5780 5781 5782 5783 5783 5784 5785 5787 5788 5787 5786 5786 5784 5785 5786 5783 5785 5789 5788 5790 5791 5791 5794 5796 5794 5794 5794 5792 5792 5792 5792 5791 5791 5791 5791 5788
5635 5638 5640 5646 5653 5654 5656 5659 5659 5661 5664 5662 5662 5671 5681 5688 5692 5694 5696 5700 5704 5705 5707 5708 5710 5713 5717 5721 5725 5728 5730 5732 5735 5738 5741 5742 5746 5752 5756 5756 5758 5760 5762 5762 5761 5762 5764 5764 5767 5769 5770 5772 5774 5774 5775 5777 5778 5778 5780 5782 5782 5780 5781 5781 5779 5779 5780 5778 5778 5783 5784 5785 5787 5787 5789 5790 5789 5788 5788 5787 5787 5787 5787 5786 5786 5786 5786 5784
5627 5630 5635 5642 5647 5649 5651 5652 5653 5654 5653 5651 5657 5667 5675 5680 5685 5687 5689 5693 5696 5697 5700 5703 5705 5707 5710 5714 5718 5721 5722 5726 5729 5732 5734 5737 5741 5748 5751 5751 5753 5755 5755 5755 5754 5756 5758 5758 5759 5762 5764 5765 5766 5767 5769 5772 5772 5773 5774 5775 5775 5775 5774 5775 5774 5773 5774 5772 5772 5776 5778 5780 5783 5785 5784 5783 5783 5782 5781 5781 5782 5783 5782 5780 5780 5782 5781 5778
5619 5624 5630 5637 5640 5642 5646 5647 5646 5644 5642 5644 5654 5663 5669 5673 5675 5678 5682 5686 5687 5689 5693 5697 5699 5700 5703 5707 5709 5712 5715 5719 5722 5725 5727 5731 5736 5742 5745 5745 5747 5748 5748 5747 5748 5750 5751 5751 5753 5755 5756 5757 5760 5763 5765 5767 5767 5767 5768 5769 5769 5769 5768 5768 5767 5767 5768 5768 5768 5770 5771 5774 5779 5780 5778 5777 5777 5775 5774 5775 5777 5776 5776 5775 5775 5776 5775 5772
5612 5617 5625 5630 5632 5636 5640 5640 5637 5635 5636 5641 5650 5658 5662 5665 5668 5672 5676 5678 5679 5683 5688 5691 5692 5694 5697 5699 5702 5706 5709 5711 5715 5718 5721 5726 5731 5736 5738 5739 5740 5741 5741 5740 5742 5744 5745 5746 5747 5748 5750 5753 5755 5758 5759 5759 5759 5760 5761 5762 5763 5762 5761 5760 5759 5761 5763 5763 5764 5764 5763 5767 5774 5774 5772 5771 5769 5768 5767 5768 5770 5769 5766 5768 5770 5769 5767 5765
5606 5613 5619 5622 5624 5629 5631 5630 5629 5628 5631 5637 5645 5651 5654 5658 5662 5665 5667 5671 5674 5677 5682 5685 5686 5689 5691 5693 5696 5699 5701 5704 5708 5711 5715 5720 5726 5730 5731 5732 5732 5734 5734 5734 5736 5739 5739 5738 5739 5741 5744 5747 5748 5749 5751 5751 5752 5753 5752 5754 5755 5755 5755 5754 5754 5757 5759 5758 5759 5758 5755 5760 5768 5769 5767 5765 5762 5763 5763 5760 5762 5763 5759 5758 5762 5762 5759 5759
5602 5608 5611 5613 5616 5620 5622 5622 5622 5622 5625 5633 5640 5644 5647 5650 5654 5657 5660 5665 5667 5670 5674 5677 5680 5683 5685 5687 5690 5691 5695 5698 5700 5705 5710 5714 5718 5722 5723 5723 5724 5725 5727 5728 5730 5732 5731 5730 5732 5734 5737 5739 5740 5742 5744 5744 5744 5744 5745 5747 5749 5750 5751 5751 5751 5753 5752 5752 5754 5752 5748 5753 5761 5762 5762 5760 5757 5758 5759 5754 5753 5756 5754 5752 5753 5754 5753 5752
5596 5599 5602 5605 5607 5609 5610 5612 5614 5617 5622 5628 5632 5635 5639 5642 5646 5651 5655 5658 5660 5663 5667 5670 5673 5676 5679 5681 5683 5685 5688 5690 5694 5699 5703 5706 5710 5714 5715 5716 5716 5717 5719 5721 5723 5724 5722 5723 5726 5727 5729 5731 5732 5734 5735 5736 5737 5738 5742 5744 5745 5747 5747 5746 5746 5746 5745 5746 5748 5743 5740 5747 5755 5756 5755 5756 5754 5752 5752 5750 5749 5748 5747 5747 5748 5748 5747 5747
5587 5589 5593 5596 5598 5600 5602 5605 5609 5612 5616 5620 5624 5628 5632 5635 5641 5646 5649 5651 5653 5656 5659 5662 5665 5669 5672 5674 5676 5679 5681 5684 5689 5692 5695 5698 5703 5705 5706 5707 5708 5710 5712 5713 5714 5715 5714 5716 5718 5719 5720 5722 5724 5727 5729 5732 5734 5734 5738 5739 5739 5740 5740 5739 5740 5738 5736 5739 5739 5734 5735 5743 5749 5750 5749 5750 5749 5747 5745 5744 5743 5741 5740 5741 5742 5742 5742 5741
5578 5582 5585 5589 5591 5594 5597 5600 5602 5605 5609 5613 5617 5621 5624 5629 5636 5640 5641 5643 5646 5650 5653 5656 5659 5662 5663 5666 5669 5672 5674 5678 5681 5683 5686 5691 5695 5697 5698 5699 5701 5703 5704 5705 5706 5707 5706 5707 5709 5711 5712 5715 5720 5724 5725 5726 5726 5727 5730 5732 5731 5732 5733 5732 5731 5728 5729 5731 5730 5729 5733 5736 5741 5744 5744 5743 5743 5742 5740 5737 5735 5734 5734 5736 5736 5735 5734 5734
5570 5574 5579 5583 5584 5586 5590 5592 5594 5598 5604 5608 5610 5614 5619 5624 5629 5631 5632 5636 5641 5644 5647 5649 5652 5654 5655 5659 5663 5666 5669 5671 5672 5675 5680 5684 5686 5688 5690 5691 5694 5695 5697 5698 5699 5699 5697 5698 5702 5704 5706 5711 5717 5718 5717 5717 5718 5720 5723 5724 5724 5725 5725 5723 5720 5722 5726 5722 5720 5728 5730 5727 5732 5738 5737 5737 5737 5735 5733 5731 5730 5729 5728 5729 5730 5727 5726 5725
5562 5567 5573 5576 5575 5578 5583 5587 5590 5595 5599 5600 5602 5607 5612 5616 5619 5623 5628 5631 5634 5637 5639 5640 5644 5648 5651 5655 5657 5658 5661 5663 5664 5668 5673 5676 5678 5679 5681 5684 5686 5688 5690 5691 5691 5692 5690 5691 5697 5699 5699 5705 5711 5710 5709 5710 5711 5712 5714 5714 5716 5717 5716 5715 5715 5719 5719 5711 5713 5725 5724 5717 5724 5731 5729 5729 5729 5726 5726 5727 5726 5724 5722 5722 5722 5720 5719 5719
5555 5560 5565 5566 5567 5572 5579 5582 5584 5586 5588 5590 5593 5599 5604 5609 5614 5619 5623 5624 5625 5629 5631 5634 5640 5645 5647 5649 5650 5650 5653 5655 5658 5663 5666 5668 5670 5671 5673 5676 5678 5681 5683 5684 5685 5684 5683 5685 5692 5693 5692 5698 5704 5703 5702 5701 5701 5703 5705 5706 5709 5710 5709 5709 5709 5711 5709 5703 5709 5717 5713 5712 5718 5721 5720 5722 5721 5719 5721 5721 5718 5716 5715 5715 5715 5714 5714 5714
5548 5552 5555 5557 5561 5567 5571 5572 5574 5576 5579 5581 5586 5593 5599 5603 5609 5613 5615 5617 5620 5623 5625 5629 5637 5639 5640 5643 5642 5643 5648 5651 5654 5658 5660 5661 5663 5665 5666 5667 5669 5672 5675 5677 5677 5676 5676 5680 5685 5685 5683 5689 5697 5697 5693 5691 5692 5695 5697 5700 5703 5704 5702 5700 5701 5703 5701 5699 5705 5707 5704 5708 5714 5714 5714 5715 5712 5710 5711 5711 5711 5711 5710 5709 5709 5709 5709 5707
5540 5543 5546 5549 5553 5558 5561 5563 5567 5569 5570 5572 5580 5589 5594 5598 5605 5608 5608 5610 5613 5616 5620 5626 5632 5632 5632 5634 5635 5639 5646 5649 5650 5652 5654 5654 5656 5658 5659 5659 5661 5663 5665 5668 5668 5668 5671 5674 5677 5678 5674 5681 5693 5691 5683 5684 5686 5685 5689 5696 5700 5697 5693 5693 5696 5699 5696 5695 5697 5696 5696 5703 5709 5707 5706 5705 5703 5703 5704 5704 5705 5706 5705 5704 5704 5704 5703 5702
5531 5534 5537 5540 5544 5549 5552 5555 5558 5560 5562 5567 5576 5584 5587 5592 5598 5597 5596 5601 5607 5612 5617 5622 5624 5622 5623 5627 5632 5638 5642 5641 5642 5645 5645 5646 5648 5650 5651 5652 5654 5656 5657 5659 5660 5662 5665 5666 5670 5671 5667 5674 5686 5682 5675 5677 5675 5673 5684 5695 5695 5689 5685 5687 5690 5691 5690 5689 5688 5688 5691 5698 5700 5697 5697 5697 5697 5698 5699 5699 5699 5699 5699 5699 5699 5699 5699 5698